Wind_Speed
19 18 19 17 14 10 8 5 3 2 2 3 4 5 5 4 3 1 1 2 3 5 6 6 6 6 6 6 6 5 4 4 3 2 2 2 1 1 2 2 2 3
20 20 20 18 15 12 9 7 5 4 3 3 5 5 4 3 2 1 0 2 3 5 6 7 7 7 7 7 7 6 6 5 5 4 4 4 3 3 2 2 2 2
21 23 22 19 16 13 10 9 7 6 4 3 4 5 3 2 2 1 1 2 3 4 6 6 7 7 7 7 7 7 6 6 6 5 5 5 5 4 4 4 4 3
24 25 23 19 16 14 11 10 9 8 6 4 4 4 3 2 2 2 1 1 2 3 4 5 6 6 6 6 6 6 6 5 5 6 5 5 5 5 5 5 5 5
26 26 24 20 17 14 13 11 11 9 7 5 4 4 3 3 3 2 2 1 1 1 2 3 4 4 4 4 4 4 4 4 4 5 5 5 5 5 5 5 5 5
27 27 26 24 20 15 14 13 12 11 9 7 5 4 4 5 4 3 3 2 2 2 2 2 2 3 3 3 2 2 2 2 3 3 4 4 4 4 4 5 5 5
28 28 27 27 25 19 15 15 15 13 11 9 7 5 5 6 6 5 4 4 3 3 2 1 1 1 1 1 1 1 1 1 1 2 2 3 3 3 3 3 3 3
29 28 27 28 29 24 18 17 17 15 13 11 9 7 7 8 8 7 6 6 5 4 3 3 3 3 3 2 2 2 2 2 2 2 2 1 1 0 1 1 0 1
31 33 32 30 29 26 21 19 19 17 15 13 11 9 9 9 10 10 9 8 7 6 5 5 5 5 6 5 5 4 4 4 5 5 5 4 4 3 3 2 2 2
33 34 35 34 31 27 23 20 20 18 15 14 13 12 11 11 11 11 11 11 10 9 8 8 8 8 8 8 8 7 5 5 6 6 7 8 7 7 7 6 6 5
29 31 34 34 29 24 21 20 20 18 16 15 14 13 13 13 13 13 13 13 12 11 11 11 11 10 9 9 8 8 7 5 6 7 7 9 10 9 9 9 9 8
22 25 25 25 24 21 20 20 20 19 17 16 15 15 15 15 14 14 14 14 13 13 13 13 13 12 11 10 9 9 9 7 7 8 8 8 8 10 11 10 9 9
19 19 17 19 21 20 21 21 20 19 16 16 16 16 17 16 16 16 15 15 14 13 13 13 13 13 11 10 10 10 11 9 8 9 10 11 11 12 12 12 11 10
14 15 15 16 17 19 22 24 23 20 18 17 17 17 18 17 18 18 17 17 16 15 16 15 15 16 12 9 9 11 11 11 10 11 12 13 13 12 10 11 11 10
10 11 13 14 16 18 20 21 21 19 16 15 15 16 18 19 20 20 19 19 19 19 18 17 20 20 14 8 9 12 12 12 12 12 11 9 9 8 7 7 8 7
12 14 15 16 18 19 16 16 18 16 12 11 12 15 18 20 21 20 19 19 20 19 17 17 21 21 14 8 11 14 14 13 12 11 9 5 4 5 4 3 3 4
14 16 18 18 18 18 16 14 14 12 9 10 13 14 15 17 19 20 21 21 22 20 17 16 18 19 16 14 14 15 15 14 11 9 7 5 4 4 5 5 4 5
15 17 18 18 18 17 17 15 13 11 9 10 14 16 16 17 20 21 21 21 21 20 18 17 18 18 19 18 17 16 15 13 10 9 8 8 7 7 7 7 7 8
16 15 15 15 16 16 16 13 9 8 9 11 15 17 18 19 21 21 20 20 21 22 20 19 19 19 20 20 18 17 15 11 10 10 9 8 8 9 9 8 9 10
13 12 11 11 12 11 10 8 6 6 9 12 15 17 19 20 20 21 21 21 22 23 21 19 19 20 21 22 19 15 13 10 10 11 10 10 10 10 10 10 11 13
9 9 10 10 10 10 10 8 8 9 10 12 14 16 18 18 19 20 21 20 20 21 20 18 17 17 19 20 17 14 12 12 12 12 12 12 12 12 12 12 14 16
9 9 10 10 10 11 11 9 8 9 10 11 13 15 16 18 19 20 20 19 18 18 18 17 16 15 15 16 14 13 13 13 14 14 14 13 13 13 13 14 16 17
7 7 9 11 12 12 12 11 10 10 10 11 13 14 16 17 18 19 20 19 18 17 16 15 15 15 15 14 14 14 14 14 16 17 16 15 15 14 13 15 16 17
5 6 8 12 14 13 12 12 12 12 11 10 11 12 13 13 15 17 18 18 17 16 14 14 15 14 14 15 15 16 16 17 19 19 18 19 18 16 15 16 17 17
10 10 9 12 13 13 12 12 11 11 11 11 11 11 11 13 14 16 18 18 18 17 16 16 15 15 15 16 17 17 18 19 20 21 20 21 21 20 18 17 18 18
17 16 14 14 14 14 14 14 13 13 14 14 14 14 15 15 16 17 20 21 19 19 18 18 17 17 17 17 17 18 18 19 20 21 19 19 22 23 21 20 20 20
Wind_Direction
226 226 223 218 210 204 198 190 197 235 318 343 355 354 354 6 6 352 55 93 99 101 100 96 94 92 91 92 89 88 89 91 94 99 109 126 136 152 168 164 160 156
222 223 221 216 212 208 202 201 214 237 268 314 336 341 347 3 2 323 236 133 125 115 112 110 110 105 101 98 93 90 90 88 90 90 89 90 91 96 102 111 125 142
218 220 217 213 211 208 207 211 219 234 253 289 324 334 339 354 357 315 261 178 146 131 127 123 119 115 110 105 99 95 92 90 89 88 88 88 88 91 95 99 101 103
217 216 212 208 208 210 212 217 224 235 248 273 313 325 317 326 346 320 273 215 178 154 144 136 126 122 117 110 106 101 96 92 90 87 88 88 90 93 94 97 100 101
215 212 209 207 210 215 216 220 229 240 248 262 297 313 295 297 325 319 291 262 238 216 184 165 145 132 123 114 110 106 100 97 93 87 84 84 85 86 88 88 88 92
215 213 213 213 211 213 221 227 233 241 246 252 278 292 274 275 296 303 286 279 281 277 252 209 165 138 127 118 109 98 91 88 84 82 82 81 81 79 80 85 83 86
220 216 216 222 221 216 222 231 232 238 243 246 263 272 258 261 273 279 277 276 283 288 279 258 226 180 159 122 99 67 48 56 54 60 69 71 76 76 71 81 91 98
228 222 219 224 222 215 219 230 233 238 242 243 252 255 249 253 260 264 270 273 276 283 284 281 278 276 283 295 296 305 317 313 308 316 325 342 360 43 62 66 133 171
237 231 225 224 219 211 214 229 235 238 242 241 243 246 245 248 252 257 263 268 270 272 275 280 285 289 291 297 301 302 306 302 292 287 284 281 277 263 244 240 248 249
245 235 228 229 225 212 210 224 236 240 244 243 240 242 244 246 249 252 258 266 269 271 277 278 275 278 285 294 302 302 300 300 287 279 276 269 262 256 246 238 238 239
246 240 237 233 221 205 208 225 237 241 246 246 242 240 243 246 247 250 257 266 269 272 280 282 276 273 277 284 292 290 283 280 275 267 264 259 254 251 243 232 230 236
236 239 236 220 202 200 215 229 237 247 251 247 242 240 242 246 246 248 256 264 269 275 281 283 278 269 268 272 275 276 271 266 268 270 273 274 269 258 247 234 226 229
229 229 217 200 196 207 220 229 238 249 250 243 241 240 238 241 244 245 253 259 261 266 265 263 264 263 265 273 276 281 285 282 280 284 291 295 288 272 255 245 241 237
222 224 219 212 210 212 221 229 230 229 230 233 239 240 235 238 242 243 248 251 252 257 253 252 261 259 252 261 275 283 292 292 288 292 296 293 287 280 263 249 252 254
215 228 237 242 240 233 234 237 230 220 221 228 235 236 233 235 238 240 244 251 258 265 263 269 275 263 245 249 272 277 284 287 286 293 302 297 283 276 265 255 253 249
234 241 247 252 256 254 250 249 243 237 234 234 237 237 235 236 239 242 246 252 257 261 265 278 277 261 249 259 268 270 277 282 282 289 300 298 263 243 239 242 243 231
234 239 243 246 250 250 245 243 244 245 246 247 246 244 241 241 241 242 244 249 252 255 267 280 270 256 257 266 263 265 275 281 285 287 280 263 236 220 226 226 225 237
230 232 235 238 241 241 236 229 223 222 230 239 243 242 239 238 240 242 245 250 255 259 269 276 269 262 266 269 264 265 271 276 278 270 254 244 232 226 237 243 241 246
235 232 230 234 237 236 232 226 217 213 217 225 233 237 238 241 245 248 250 252 257 262 266 268 267 265 263 261 260 261 263 264 261 252 242 240 240 241 250 258 262 264
239 239 242 242 240 244 249 251 252 242 233 232 232 234 239 245 249 252 253 254 256 260 262 261 260 261 258 255 252 252 254 251 245 245 243 243 250 259 263 266 270 272
255 258 266 265 261 271 279 277 270 260 251 246 239 235 239 246 250 254 257 257 256 257 258 256 256 256 252 249 245 241 242 242 241 244 244 244 250 257 262 267 270 273
266 265 272 274 274 279 280 272 265 257 250 245 240 238 241 246 251 256 258 258 255 254 256 254 249 244 242 240 236 232 232 236 242 246 249 253 258 261 264 268 270 273
259 268 273 271 272 277 277 273 267 258 249 242 238 239 243 250 255 259 261 264 261 257 255 251 243 239 238 233 229 230 232 237 245 251 257 263 266 265 264 266 269 271
241 262 269 269 270 273 274 273 272 268 261 250 243 243 246 251 256 259 262 264 263 259 255 250 244 239 236 233 233 237 240 245 252 258 261 265 266 263 260 262 266 269
257 256 259 267 271 270 268 267 270 272 270 266 263 259 254 253 254 257 259 260 261 260 257 253 250 245 240 240 241 243 245 249 255 260 263 266 267 265 263 263 264 266
268 264 264 267 267 265 265 265 265 267 269 271 271 266 265 266 262 260 263 263 262 260 259 258 256 254 253 251 249 248 248 251 256 260 262 266 269 269 268 267 265 264
Height
3123 3125 3126 3126 3127 3127 3128 3129 3130 3132 3133 3133 3134 3135 3135 3135 3135 3136 3136 3136 3136 3136 3136 3136 3136 3136 3136 3137 3137 3137 3137 3137 3137 3137 3137 3138 3138 3138 3139 3139 3139 3140
3122 3123 3125 3125 3126 3126 3127 3129 3130 3131 3132 3133 3134 3134 3135 3135 3135 3135 3136 3136 3136 3135 3135 3135 3136 3136 3136 3136 3137 3137 3137 3137 3137 3137 3138 3138 3138 3139 3139 3139 3139 3140
3120 3122 3123 3124 3125 3126 3127 3128 3129 3130 3131 3132 3133 3134 3134 3134 3135 3135 3135 3136 3136 3135 3135 3135 3136 3136 3136 3136 3137 3137 3137 3138 3138 3138 3138 3138 3139 3139 3139 3140 3140 3140
3118 3120 3121 3123 3124 3125 3126 3127 3128 3129 3130 3131 3132 3132 3133 3134 3134 3135 3135 3135 3135 3136 3136 3135 3136 3136 3136 3136 3137 3137 3138 3138 3138 3139 3139 3139 3139 3140 3140 3140 3141 3141
3116 3118 3119 3121 3122 3124 3125 3127 3128 3128 3129 3130 3130 3131 3132 3133 3133 3134 3135 3135 3135 3136 3136 3136 3136 3136 3136 3137 3137 3137 3138 3138 3139 3139 3139 3140 3140 3140 3141 3141 3141 3142
3114 3116 3118 3119 3120 3123 3125 3126 3127 3128 3128 3129 3129 3130 3131 3132 3133 3134 3135 3135 3135 3136 3136 3136 3137 3137 3137 3137 3137 3138 3138 3139 3139 3140 3140 3141 3141 3141 3141 3142 3142 3142
3113 3115 3117 3118 3119 3121 3124 3126 3126 3127 3127 3128 3128 3129 3130 3131 3132 3133 3134 3135 3135 3136 3136 3137 3137 3137 3137 3137 3138 3138 3138 3139 3139 3140 3140 3141 3141 3142 3142 3142 3142 3142
3112 3114 3115 3116 3117 3119 3123 3125 3126 3126 3126 3127 3127 3128 3129 3130 3132 3133 3134 3135 3135 3136 3136 3137 3137 3137 3138 3138 3138 3138 3139 3139 3140 3140 3140 3141 3141 3142 3142 3142 3143 3143
3109 3111 3113 3114 3115 3118 3121 3124 3125 3125 3125 3126 3126 3127 3128 3130 3131 3132 3134 3134 3135 3136 3136 3137 3137 3137 3138 3138 3138 3139 3139 3139 3140 3140 3140 3141 3141 3141 3142 3142 3142 3142
3105 3107 3108 3110 3113 3116 3119 3122 3123 3124 3124 3124 3125 3126 3127 3128 3130 3131 3132 3134 3134 3135 3136 3136 3137 3137 3138 3138 3138 3139 3139 3139 3139 3139 3140 3140 3140 3140 3141 3141 3142 3142
3103 3105 3105 3107 3110 3114 3117 3120 3121 3122 3123 3123 3124 3125 3126 3127 3129 3130 3131 3133 3133 3134 3135 3135 3136 3136 3137 3137 3138 3138 3138 3137 3137 3138 3138 3138 3139 3139 3139 3140 3141 3141
3101 3102 3103 3106 3109 3113 3116 3119 3120 3121 3121 3122 3123 3124 3125 3127 3128 3129 3130 3131 3132 3133 3133 3133 3134 3134 3135 3135 3136 3136 3135 3135 3136 3136 3137 3137 3139 3139 3138 3139 3139 3139
3100 3100 3102 3105 3108 3111 3115 3117 3119 3120 3120 3120 3121 3122 3124 3125 3127 3128 3130 3131 3131 3132 3131 3131 3131 3132 3133 3134 3134 3134 3134 3135 3135 3136 3136 3136 3137 3137 3137 3138 3139 3138
3100 3101 3102 3104 3107 3110 3113 3114 3114 3115 3117 3118 3120 3121 3123 3124 3126 3127 3128 3129 3129 3129 3129 3130 3130 3130 3131 3131 3132 3132 3133 3134 3134 3134 3134 3134 3134 3135 3135 3136 3137 3138
3102 3102 3103 3104 3104 3106 3110 3112 3113 3113 3115 3117 3119 3120 3121 3123 3124 3125 3126 3127 3127 3127 3129 3130 3130 3130 3129 3128 3129 3131 3132 3133 3133 3132 3133 3132 3132 3133 3133 3134 3135 3137
3102 3103 3103 3103 3102 3103 3107 3110 3112 3113 3116 3117 3118 3119 3120 3120 3122 3123 3124 3125 3125 3125 3128 3129 3129 3128 3128 3127 3128 3129 3130 3131 3131 3130 3131 3131 3131 3131 3132 3133 3134 3135
3102 3102 3103 3103 3103 3104 3106 3109 3110 3112 3114 3115 3116 3117 3118 3119 3120 3121 3122 3122 3123 3124 3126 3127 3127 3126 3126 3126 3127 3127 3128 3128 3128 3128 3129 3129 3130 3130 3130 3132 3133 3134
3101 3101 3101 3102 3104 3105 3106 3108 3109 3110 3111 3113 3114 3115 3116 3116 3117 3118 3120 3121 3122 3123 3124 3125 3125 3125 3125 3124 3124 3125 3126 3126 3126 3127 3127 3128 3128 3128 3129 3129 3130 3131
3099 3100 3101 3103 3105 3106 3107 3107 3107 3108 3110 3111 3112 3114 3114 3114 3115 3116 3118 3120 3120 3120 3122 3122 3122 3122 3122 3122 3122 3123 3123 3124 3125 3125 3125 3126 3126 3126 3126 3127 3127 3128
3100 3101 3102 3103 3104 3105 3105 3105 3105 3107 3108 3110 3111 3112 3112 3112 3114 3115 3116 3117 3117 3118 3119 3120 3120 3119 3119 3119 3120 3120 3121 3122 3123 3123 3123 3123 3123 3124 3124 3125 3125 3125
3100 3100 3100 3100 3100 3100 3101 3102 3104 3106 3107 3108 3109 3110 3110 3110 3111 3112 3113 3114 3114 3115 3116 3116 3117 3117 3117 3117 3117 3118 3119 3120 3120 3121 3121 3121 3122 3122 3123 3124 3124 3123
3098 3098 3098 3098 3098 3098 3099 3101 3103 3104 3105 3107 3107 3108 3108 3108 3109 3109 3110 3111 3111 3112 3113 3113 3113 3114 3115 3115 3115 3116 3117 3117 3118 3118 3118 3119 3120 3121 3122 3122 3122 3122
3096 3096 3095 3095 3096 3097 3097 3099 3100 3102 3103 3105 3106 3106 3107 3106 3106 3106 3107 3108 3108 3109 3109 3110 3111 3112 3112 3113 3113 3114 3115 3115 3115 3116 3116 3117 3118 3119 3119 3119 3119 3120
3094 3094 3093 3093 3094 3095 3096 3097 3098 3099 3100 3102 3103 3104 3104 3105 3105 3104 3104 3105 3106 3106 3107 3108 3109 3109 3110 3111 3112 3113 3113 3113 3113 3114 3114 3115 3116 3117 3117 3117 3117 3117
3092 3092 3092 3092 3092 3093 3094 3095 3095 3096 3097 3098 3100 3101 3101 3102 3102 3101 3101 3102 3103 3104 3105 3105 3106 3107 3108 3109 3110 3111 3111 3111 3111 3112 3112 3112 3113 3114 3114 3115 3115 3115
3090 3090 3091 3091 3091 3091 3092 3093 3093 3094 3095 3096 3097 3098 3098 3099 3099 3099 3098 3099 3100 3101 3102 3103 3104 3105 3106 3107 3108 3108 3109 3109 3109 3110 3110 3109 3109 3109 3110 3111 3112 3112